Location: Fernhill
(41.0167°S, 175.6333°E)
Time: 14:05:11
(UTC+00:00)

Meteor 1-31 Rocket - Visible Passes

Search period start: 14 February 2026 00:00
Search period end: 24 February 2026 00:00
Orbit: 458 x 477 km, 97.6° (Epoch: 13 February)

Date Brightness Start Highest point End Pass type
(mag) Time Alt. Az. Time Alt. Az. Time Alt. Az.
14 Feb 3.5 08:14:28 10° SE 08:17:39 28° E 08:20:46 10° NNE visible
14 Feb 5.4 09:48:04 10° SSW 09:50:29 17° WSW 09:52:52 10° WNW visible
15 Feb 4.0 09:17:38 10° S 09:21:00 38° WSW 09:24:20 10° NW visible
16 Feb 2.4 08:47:46 10° SSE 08:51:24 82° ENE 08:54:30 13° N visible
17 Feb 3.3 08:18:23 10° SSE 08:21:39 31° E 08:24:17 13° NNE visible
17 Feb 5.6 09:52:13 10° SSW 09:54:26 16° WSW 09:56:37 10° WNW visible
18 Feb 4.4 07:49:52 10° ESE 07:51:44 14° E 07:53:35 10° ENE visible
18 Feb 4.2 09:21:38 10° S 09:24:56 34° WSW 09:28:02 11° NW visible
19 Feb 2.4 08:51:41 10° SSE 08:55:18 89° WSW 08:57:46 19° NNW visible
20 Feb 3.2 08:22:11 10° SSE 08:25:30 34° E 08:27:30 19° NNE visible
20 Feb 5.6 09:56:15 10° SSW 09:58:14 14° WSW 10:00:12 10° W visible
21 Feb 4.3 07:53:28 10° ESE 07:55:34 15° E 07:57:12 12° ENE visible
21 Feb 4.3 09:25:30 10° S 09:28:43 31° WSW 09:31:11 14° NW visible
22 Feb 2.5 08:55:28 10° S 08:59:03 81° WSW 09:00:53 27° NNW visible
23 Feb 3.0 08:25:52 10° SSE 08:29:14 38° E 08:30:33 27° NE visible
23 Feb 5.7 10:00:11 10° SW 10:01:55 13° WSW 10:03:39 10° W visible
